Temperature
26 27 28 28 29 29 29 29 29 30 30 30 30 30 30 28 27 26 25 24 22 21 20 19 18 18 17 17 18 17 17 17 17 17 17 17 17 17 17 17 17 17 17 17
26 27 28 29 29 28 28 28 29 30 30 29 29 30 30 28 27 26 25 24 22 21 20 19 18 17 18 18 17 17 17 17 17 17 17 17 17 17 17 17 17 17 17 17
27 28 29 28 28 28 28 29 29 29 29 29 29 30 30 28 26 25 24 24 23 22 20 19 18 18 17 17 17 17 17 17 17 17 17 17 17 17 17 17 17 17 17 17
28 29 28 28 28 28 28 29 29 29 29 29 29 29 30 29 27 26 25 24 23 22 21 20 19 18 18 17 17 17 17 17 17 17 17 17 17 17 17 17 17 17 17 17
27 28 27 27 28 28 29 29 29 29 29 29 29 29 30 29 28 28 26 25 24 22 21 20 19 18 18 17 17 17 17 17 17 17 17 17 17 17 17 17 17 17 17 17
28 29 28 29 29 29 29 28 28 28 29 28 29 28 29 30 29 28 27 25 23 22 21 20 19 18 17 17 17 16 16 17 17 17 17 17 17 17 17 17 17 17 17 16
27 28 29 29 28 29 28 28 27 27 27 28 29 28 29 30 29 28 27 26 24 23 21 20 19 18 17 17 17 16 16 16 17 17 17 17 17 17 17 17 17 17 17 16
27 27 28 29 28 28 28 28 27 26 27 28 28 28 29 29 28 27 26 25 24 23 22 20 19 18 18 17 17 17 16 16 17 17 17 17 17 17 17 17 17 17 17 17
28 28 29 29 29 29 28 28 30 28 28 27 28 29 29 29 28 27 26 25 24 23 22 21 20 19 18 17 17 17 16 16 16 16 17 17 17 17 17 17 17 17 17 17
28 27 28 28 28 28 29 29 28 28 26 26 28 28 29 29 28 28 27 26 25 23 22 21 20 19 18 18 17 17 17 16 16 17 17 17 17 17 17 17 17 17 17 16
28 27 27 28 27 28 27 28 28 28 28 27 27 28 30 29 28 28 27 26 25 24 23 21 20 19 18 18 17 17 17 16 16 17 16 17 17 17 17 17 17 16 16 16
27 27 27 28 28 28 28 28 28 27 27 27 27 28 29 29 29 28 27 26 24 23 22 21 20 19 18 18 18 17 17 17 17 17 17 17 17 17 17 17 17 16 16 16
26 26 25 26 27 27 27 28 28 28 28 27 27 28 28 28 28 27 26 25 24 23 22 21 20 19 18 18 18 18 17 17 17 17 17 17 17 17 17 17 17 16 16 16
25 25 26 26 27 27 27 27 27 27 27 27 27 28 28 28 28 27 26 25 24 22 22 21 20 19 19 18 18 18 17 17 17 17 17 17 17 17 17 17 17 17 17 16
25 25 26 26 27 27 27 27 27 27 27 27 28 28 28 28 27 26 25 24 23 22 22 21 20 19 19 18 18 18 17 17 17 17 17 17 17 17 16 16 16 16 16 16
23 24 25 25 26 26 26 26 26 26 27 27 27 28 28 27 26 25 24 24 23 22 21 20 20 19 18 18 18 18 17 17 17 17 17 17 17 17 16 16 16 16 16 16
23 23 23 24 25 25 25 26 26 26 27 27 27 27 27 26 25 24 23 23 23 22 21 20 19 19 18 18 18 18 17 17 17 17 17 17 17 16 16 16 16 16 16 16
22 22 22 23 23 22 25 26 26 25 26 26 26 26 25 24 23 21 21 21 21 21 20 19 19 18 18 18 18 18 17 17 17 17 17 17 17 17 17 16 16 16 16 16
21 21 22 22 23 23 24 24 24 24 24 25 25 24 24 22 22 20 19 19 19 18 18 18 18 18 18 18 18 17 17 17 17 16 16 16 16 16 16 16 16 16 16 16
20 20 21 21 21 22 23 23 22 23 23 23 23 23 22 22 23 21 17 17 17 17 17 17 17 17 17 17 17 17 17 16 16 16 16 16 16 16 16 16 16 16 16 16
20 19 20 20 21 22 22 22 22 22 21 20 20 21 21 21 20 17 16 16 16 16 16 16 16 16 16 16 16 16 16 16 16 16 16 16 16 16 16 16 15 15 15 15
20 20 20 20 20 20 21 21 21 20 19 19 19 18 18 17 16 15 15 15 15 15 15 15 15 15 15 15 16 15 15 15 15 15 15 15 15 15 15 15 15 15 14 14
20 20 20 20 20 19 18 18 17 17 17 17 17 17 16 15 15 14 14 14 14 14 14 14 14 14 14 14 15 15 14 14 14 14 14 14 14 14 14 14 14 14 14 14
19 18 18 18 19 18 17 16 16 16 16 16 16 15 15 14 14 13 13 13 13 13 13 13 13 13 13 13 14 14 13 14 14 13 13 13 13 13 13 13 13 13 13 13
18 18 18 17 17 17 16 15 15 15 15 15 15 14 14 14 13 12 12 12 12 12 12 12 13 13 13 13 13 13 13 13 13 13 13 13 13 12 12 12 12 12 12 12
17 17 17 16 16 15 14 14 14 14 14 14 13 13 12 12 12 12 11 11 12 12 12 12 12 12 12 12 12 12 12 12 12 12 12 12 12 12 12 12 12 12 11 11
Wind_Speed
13 13 15 14 13 10 7 8 8 6 3 6 9 9 5 5 7 8 8 9 9 9 9 10 10 11 13 13 12 13 13 12 11 10 10 9 8 8 7 7 9 10 9 9
11 17 16 11 10 10 11 11 10 6 2 6 8 10 6 5 7 7 8 9 9 10 10 10 11 12 13 13 12 13 14 14 13 11 9 8 8 7 8 7 8 10 10 10
17 9 11 12 13 13 13 12 9 7 6 7 8 10 5 5 7 7 8 9 10 11 12 12 12 12 12 13 13 12 13 13 13 12 9 8 7 7 7 8 8 9 11 10
15 11 10 13 14 14 13 9 8 8 9 7 5 10 5 4 7 8 9 10 10 11 12 12 12 12 12 12 12 12 13 13 13 14 13 13 11 10 10 9 9 9 10 10
11 11 13 15 14 13 10 5 7 9 10 11 8 9 5 4 5 6 9 10 10 11 12 12 12 12 11 11 11 11 12 13 13 14 14 13 11 9 8 9 9 9 9 10
11 8 10 11 11 11 8 7 7 9 11 12 7 8 7 1 2 2 7 10 11 11 11 11 11 10 10 10 10 11 12 12 13 13 14 14 13 12 11 11 11 10 9 9
13 13 12 10 11 11 11 11 9 10 10 9 3 7 6 3 1 2 5 8 11 12 12 12 12 11 11 11 12 12 12 12 13 14 14 14 14 13 14 13 12 11 10 9
13 13 14 12 14 11 13 14 11 9 9 7 4 6 3 1 0 2 4 7 9 11 12 12 12 11 11 11 12 12 12 12 12 13 12 12 13 11 11 12 11 11 9 9
9 8 8 9 10 12 12 13 12 12 12 10 7 5 4 2 3 5 6 8 9 11 11 12 12 12 11 11 12 12 12 12 13 13 12 12 12 12 11 12 11 10 8 9
6 7 8 7 8 10 11 9 8 10 9 10 8 7 3 2 2 5 6 7 9 10 11 12 12 12 11 11 11 12 12 12 13 13 12 11 12 12 11 11 12 11 11 10
10 9 8 9 11 11 10 11 10 10 10 10 9 4 1 0 1 3 5 7 9 10 11 11 11 11 11 11 11 11 12 12 12 12 12 12 12 12 12 11 12 11 11 11
9 8 9 10 6 5 11 13 12 11 11 10 11 6 2 1 1 2 4 6 8 10 10 11 11 12 12 12 12 11 12 12 12 12 12 12 12 12 12 11 11 11 11 11
5 6 9 9 9 9 10 13 13 13 12 12 12 7 5 3 1 2 4 6 8 10 11 11 11 12 12 12 11 11 12 12 12 12 12 12 12 12 11 11 11 11 11 11
4 7 11 11 6 7 10 12 13 13 12 13 14 11 5 4 3 2 4 7 9 10 11 12 12 12 12 11 11 11 11 11 12 12 12 12 12 12 11 11 11 10 10 10
4 9 11 11 8 8 11 13 13 15 16 16 14 12 8 4 3 2 3 7 9 10 11 12 12 12 12 12 11 11 11 11 11 11 11 11 11 11 11 10 10 10 10 10
3 6 9 11 11 12 14 14 15 16 17 18 17 14 6 4 3 2 3 6 9 10 11 11 12 12 12 12 11 11 10 10 11 11 11 10 10 10 10 10 10 9 9 9
4 5 9 12 10 11 16 14 15 15 15 15 16 12 6 5 3 2 2 5 7 8 10 11 12 11 11 11 11 11 10 10 10 10 10 10 10 10 10 10 10 10 10 10
6 7 7 10 9 14 7 3 7 11 13 12 11 8 5 4 1 1 1 2 4 5 7 8 10 10 10 10 10 10 10 10 10 10 9 9 9 9 9 9 9 9 9 9
6 7 7 9 12 12 7 3 5 8 10 6 6 6 4 1 2 2 4 3 3 4 5 6 7 9 9 10 10 10 10 10 9 8 7 7 7 8 8 8 8 8 7 8
5 7 8 9 11 11 3 1 4 7 9 1 3 4 3 4 6 2 5 5 5 6 6 7 7 8 8 8 10 10 10 9 8 7 6 5 5 6 6 5 5 5 6 6
6 6 10 12 11 8 2 4 4 8 2 5 5 3 3 3 2 5 6 6 7 7 8 8 8 8 7 8 9 9 9 7 6 6 6 6 5 5 4 4 3 3 4 3
6 5 7 8 9 6 3 4 4 5 7 6 5 2 2 5 7 7 8 8 9 9 10 10 10 10 9 9 10 10 8 7 7 7 7 6 5 5 5 5 4 3 3 3
4 4 4 4 4 3 4 5 6 6 5 4 2 2 5 7 9 10 10 10 10 11 11 11 12 13 12 11 11 11 9 8 9 9 8 7 7 5 4 4 4 3 3 2
3 2 4 5 4 4 5 5 4 4 3 1 1 4 7 10 11 11 11 11 11 12 12 12 13 14 13 12 12 11 9 9 10 10 9 8 7 7 6 4 3 3 2 2
3 3 5 6 4 3 3 5 5 4 3 3 5 7 10 13 13 13 12 12 12 12 12 13 13 14 14 12 12 11 10 10 11 10 9 8 8 7 7 7 6 5 5 4
3 4 5 3 2 2 3 5 5 4 6 8 11 13 13 14 15 15 13 12 12 13 13 14 14 14 14 13 12 11 10 9 9 8 8 7 6 6 5 6 6 9 7 7
Wind_Direction
194 212 218 218 226 254 258 254 252 259 292 280 273 278 272 216 220 218 209 200 196 193 186 184 183 184 183 184 186 187 191 185 178 176 178 179 186 190 188 188 184 183 187 184
198 222 225 227 229 240 243 247 250 250 276 282 286 282 264 218 223 223 213 204 198 190 181 181 183 183 188 187 190 190 191 185 182 181 180 181 179 188 190 189 182 188 189 187
213 217 211 217 218 226 235 243 255 276 289 252 278 269 231 199 211 215 214 208 201 195 189 185 187 189 192 193 192 191 188 183 184 177 173 173 172 183 185 186 185 189 189 188
226 223 209 217 222 225 233 240 260 270 273 271 279 290 278 198 214 213 210 205 200 195 192 189 189 191 195 195 192 191 189 186 184 179 181 183 187 190 192 187 181 182 186 185
214 215 214 222 224 223 239 250 256 264 268 274 258 276 292 182 233 216 204 201 199 191 189 189 191 193 195 191 191 190 190 188 186 185 185 187 193 195 190 185 176 182 182 185
227 209 222 227 224 222 224 230 242 248 255 258 265 277 286 287 266 225 190 194 195 189 185 185 186 188 189 187 189 189 190 189 184 185 188 192 194 194 190 187 181 187 183 187
218 219 220 228 222 209 216 229 234 235 234 250 236 266 280 343 303 252 201 188 189 187 184 182 184 185 186 187 187 186 186 187 185 187 192 196 197 196 195 192 189 190 187 189
210 213 209 213 223 217 216 229 240 253 257 262 228 257 288 22 258 204 190 181 181 184 184 183 183 184 182 183 182 182 183 185 187 187 191 194 195 197 198 197 192 192 193 190
212 210 183 206 219 230 218 228 246 260 267 270 257 253 259 195 184 176 174 176 181 182 180 180 180 182 181 180 182 183 183 185 188 188 188 190 193 198 196 191 197 195 192 188
227 220 193 190 202 218 241 235 231 246 257 262 257 254 256 219 183 178 183 184 181 178 179 177 178 181 180 180 181 183 183 186 187 188 190 189 192 195 193 193 197 196 193 192
231 231 206 200 214 210 207 220 232 246 256 265 271 267 73 205 219 193 187 185 179 179 177 174 174 177 176 177 177 181 183 184 187 189 192 192 193 195 194 196 196 195 194 192
218 235 235 221 216 249 229 230 228 240 245 252 271 275 106 158 209 181 182 179 178 177 173 171 170 170 173 176 177 179 180 184 188 187 189 191 193 194 194 196 196 193 193 196
192 222 230 218 210 210 228 232 237 243 254 252 258 260 141 161 209 189 182 175 174 175 173 170 169 171 172 175 178 179 181 183 184 185 187 188 192 193 195 195 193 193 194 198
230 233 244 250 250 217 223 228 232 238 246 252 253 266 242 244 254 217 187 178 176 175 175 175 173 174 174 175 177 180 182 182 182 182 184 188 193 194 194 195 195 194 195 198
244 241 247 262 272 260 251 245 237 240 251 261 266 266 268 268 285 268 204 181 177 176 177 178 177 175 175 176 177 180 181 181 180 182 184 186 190 191 192 192 193 194 197 200
250 258 254 253 254 255 255 252 249 247 251 256 262 265 270 274 285 263 203 186 183 180 179 178 176 174 175 176 177 177 178 178 178 182 184 183 183 184 186 188 189 191 197 202
233 244 255 254 250 257 251 247 248 248 248 252 255 261 255 263 271 272 199 190 184 178 177 175 174 174 174 175 174 174 173 171 173 177 180 178 179 181 185 187 189 191 194 197
239 242 247 256 252 248 253 266 263 262 259 259 262 262 265 277 349 38 37 180 170 168 167 167 168 167 169 168 168 169 167 168 170 173 176 177 179 180 182 186 190 193 194 196
227 234 244 248 249 255 246 258 278 269 262 266 261 254 253 188 176 126 68 76 110 128 137 145 153 156 157 160 160 158 159 160 163 165 169 172 175 178 182 186 191 191 193 197
198 225 241 243 251 253 248 9 319 270 247 320 311 268 237 218 234 155 88 83 91 99 108 117 124 132 140 149 151 150 149 151 153 154 152 152 159 167 174 181 184 183 191 199
205 218 234 244 248 254 334 340 281 245 281 1 333 291 250 256 27 90 96 91 92 95 98 102 106 110 117 128 135 136 134 136 137 134 130 130 136 140 144 152 163 173 182 181
244 238 231 239 243 244 16 317 292 324 339 331 333 349 60 83 98 99 99 96 95 95 95 95 94 92 94 106 115 115 115 119 120 117 113 111 112 115 119 123 124 137 152 152
245 274 277 256 267 1 350 326 322 316 309 318 348 71 114 115 112 106 102 97 93 93 94 93 94 91 87 89 97 100 99 104 107 104 101 99 98 94 96 110 118 122 128 139
236 272 261 263 268 320 339 339 337 335 324 332 103 124 127 121 115 109 102 96 92 90 91 92 91 89 86 86 87 91 95 97 98 97 96 95 93 91 81 68 74 81 84 103
294 262 260 264 290 316 355 0 359 5 30 72 98 110 115 113 110 106 100 94 90 87 86 87 87 86 83 82 82 83 87 91 93 92 91 90 87 85 81 72 53 51 53 44
288 277 273 289 358 349 348 360 10 57 84 98 100 94 94 101 102 100 96 93 92 90 88 86 84 83 81 78 77 77 81 86 90 91 86 86 87 86 87 91 83 59 60 71
Height
1486 1486 1482 1478 1476 1475 1475 1478 1478 1474 1471 1473 1471 1469 1468 1473 1476 1478 1480 1483 1486 1489 1491 1493 1494 1496 1499 1501 1503 1506 1510 1514 1518 1522 1526 1531 1536 1540 1544 1547 1550 1553 1555 1557
1484 1481 1474 1474 1476 1479 1478 1479 1476 1471 1471 1472 1470 1467 1464 1469 1473 1476 1478 1481 1484 1487 1490 1491 1493 1494 1496 1498 1501 1503 1507 1511 1515 1519 1524 1528 1533 1537 1541 1545 1548 1550 1553 1555
1475 1470 1471 1475 1477 1480 1477 1476 1474 1474 1470 1468 1470 1466 1462 1466 1471 1474 1476 1479 1481 1484 1487 1489 1491 1492 1494 1495 1498 1501 1504 1507 1512 1516 1521 1526 1531 1535 1539 1542 1545 1548 1551 1553
1470 1467 1472 1474 1474 1475 1477 1469 1472 1473 1474 1469 1470 1475 1460 1461 1466 1469 1472 1475 1478 1481 1484 1486 1488 1490 1492 1493 1496 1498 1501 1505 1509 1513 1518 1522 1527 1531 1535 1539 1543 1546 1549 1551
1467 1466 1470 1472 1469 1469 1469 1468 1471 1470 1471 1471 1466 1472 1460 1457 1462 1462 1467 1471 1474 1478 1481 1484 1486 1488 1490 1491 1493 1495 1499 1502 1506 1510 1515 1519 1524 1529 1533 1537 1540 1543 1546 1549
1460 1463 1464 1463 1463 1465 1467 1471 1470 1469 1467 1479 1467 1472 1466 1453 1457 1458 1462 1468 1472 1475 1479 1482 1484 1486 1488 1489 1491 1493 1496 1499 1503 1507 1512 1516 1521 1525 1530 1533 1537 1540 1544 1546
1464 1461 1460 1461 1463 1464 1467 1473 1480 1482 1479 1475 1462 1469 1462 1451 1453 1456 1460 1464 1469 1473 1476 1479 1482 1484 1485 1487 1489 1491 1494 1497 1500 1504 1509 1513 1518 1523 1527 1531 1534 1538 1541 1544
1464 1463 1456 1457 1459 1460 1462 1465 1479 1487 1481 1469 1463 1467 1454 1451 1455 1457 1460 1462 1466 1470 1473 1477 1479 1482 1483 1485 1487 1489 1492 1495 1499 1502 1506 1510 1515 1520 1524 1528 1532 1535 1538 1541
1455 1457 1451 1453 1454 1455 1459 1460 1453 1463 1465 1471 1462 1456 1450 1449 1452 1455 1458 1461 1464 1467 1471 1474 1477 1480 1482 1483 1485 1488 1490 1493 1497 1500 1504 1508 1512 1516 1521 1524 1528 1532 1535 1538
1448 1456 1450 1451 1454 1455 1452 1451 1459 1465 1478 1479 1466 1459 1454 1449 1449 1452 1455 1458 1462 1465 1469 1472 1475 1478 1480 1482 1484 1487 1489 1492 1495 1499 1502 1506 1510 1514 1518 1521 1525 1528 1531 1535
1447 1455 1453 1452 1453 1452 1456 1457 1457 1457 1459 1471 1474 1462 1442 1445 1447 1449 1452 1456 1459 1463 1466 1470 1473 1476 1478 1481 1483 1485 1487 1490 1494 1497 1501 1504 1508 1512 1515 1518 1522 1525 1528 1531
1449 1450 1452 1448 1445 1446 1447 1449 1453 1464 1464 1461 1464 1458 1439 1443 1445 1448 1451 1455 1458 1461 1465 1468 1471 1474 1476 1479 1482 1484 1486 1489 1492 1495 1499 1502 1506 1509 1513 1516 1519 1522 1525 1528
1450 1454 1460 1456 1453 1451 1449 1446 1446 1449 1452 1457 1462 1455 1441 1443 1445 1448 1451 1454 1457 1461 1464 1467 1470 1472 1475 1478 1480 1483 1485 1488 1491 1494 1496 1500 1503 1507 1510 1513 1516 1519 1522 1525
1451 1450 1452 1454 1447 1443 1448 1447 1446 1448 1454 1453 1451 1446 1441 1442 1444 1447 1450 1453 1456 1460 1462 1465 1468 1471 1473 1476 1479 1481 1484 1487 1489 1492 1494 1497 1500 1504 1507 1511 1514 1516 1519 1522
1450 1449 1446 1443 1441 1443 1444 1444 1444 1447 1445 1447 1443 1441 1438 1441 1443 1447 1449 1452 1455 1458 1460 1463 1466 1469 1472 1475 1477 1480 1483 1485 1488 1490 1493 1495 1498 1502 1505 1508 1511 1514 1516 1519
1451 1451 1449 1448 1443 1443 1445 1442 1442 1442 1441 1441 1440 1439 1437 1442 1445 1447 1449 1450 1453 1456 1458 1461 1464 1467 1470 1473 1476 1478 1481 1484 1486 1489 1492 1494 1497 1499 1502 1505 1508 1511 1513 1516
1450 1454 1455 1450 1444 1446 1447 1439 1438 1438 1436 1437 1439 1437 1437 1441 1445 1447 1449 1450 1452 1454 1457 1459 1462 1465 1468 1471 1473 1476 1479 1482 1485 1487 1490 1493 1495 1498 1501 1504 1506 1508 1510 1512
1453 1454 1454 1450 1452 1460 1438 1433 1435 1436 1434 1433 1434 1436 1439 1442 1446 1448 1450 1451 1452 1453 1456 1458 1461 1463 1466 1469 1472 1475 1478 1481 1483 1486 1489 1491 1494 1496 1498 1501 1503 1505 1507 1509
1453 1455 1453 1452 1451 1445 1438 1437 1438 1439 1437 1434 1436 1438 1441 1444 1445 1448 1450 1451 1452 1453 1455 1457 1459 1462 1465 1468 1471 1474 1477 1480 1482 1484 1487 1489 1492 1494 1496 1498 1500 1502 1504 1506
1453 1454 1454 1452 1455 1453 1440 1438 1441 1442 1441 1438 1439 1440 1441 1442 1441 1446 1450 1451 1452 1453 1454 1456 1459 1461 1464 1467 1470 1473 1476 1479 1481 1483 1485 1488 1490 1492 1494 1496 1498 1499 1501 1502
1453 1454 1454 1452 1452 1442 1439 1441 1441 1446 1443 1443 1442 1442 1442 1442 1444 1450 1450 1451 1453 1454 1455 1457 1459 1461 1464 1467 1470 1472 1475 1478 1480 1482 1484 1486 1488 1490 1491 1493 1495 1496 1498 1499
1448 1449 1451 1451 1453 1449 1442 1441 1443 1444 1444 1444 1443 1443 1444 1446 1448 1450 1451 1452 1454 1455 1457 1458 1459 1462 1464 1467 1469 1472 1475 1478 1480 1482 1484 1485 1487 1489 1490 1491 1492 1494 1495 1496
1447 1447 1445 1447 1447 1446 1446 1446 1447 1446 1445 1444 1444 1445 1445 1447 1450 1451 1453 1455 1456 1458 1459 1461 1462 1464 1466 1469 1471 1473 1476 1479 1480 1482 1484 1485 1487 1488 1489 1490 1491 1492 1493 1494
1447 1449 1448 1448 1444 1446 1447 1447 1446 1445 1445 1445 1445 1446 1446 1448 1451 1454 1456 1458 1459 1461 1462 1464 1466 1467 1469 1471 1474 1476 1478 1480 1481 1483 1484 1486 1487 1488 1489 1490 1492 1492 1493 1493
1447 1448 1447 1447 1446 1447 1447 1447 1446 1445 1445 1445 1446 1447 1448 1450 1453 1456 1459 1461 1463 1464 1466 1468 1470 1472 1474 1476 1477 1479 1481 1483 1484 1485 1486 1488 1489 1490 1490 1491 1492 1492 1492 1493
1448 1449 1448 1448 1448 1449 1449 1448 1447 1446 1446 1447 1447 1449 1452 1453 1456 1459 1462 1465 1467 1469 1471 1473 1475 1477 1479 1480 1481 1483 1484 1486 1487 1488 1489 1490 1491 1492 1492 1493 1493 1493 1494 1493